Погода в Силиври

Турция     41°04′19″N   28°15′11″E
темп.,
°C
ветер,
м/с
пор.,
м/с
влажн.,
%
обл.,
%
осадки,
мм/ч
давл.,
гПа
погр.,
м
22 октября, пт
пт2200:00+16зюз69680 0.0 1019368
03:00+16зюз68690 0.0 1019373
06:00+16зюз57680 0.0 1020366
09:00+16зюз57680 0.0 1021416
12:00+17юз56620 0.0 1021368
15:00+17юз46620 0.0 1020307
18:00+18юз33620 0.0 101956
21:00+17зюз33720 0.0 102061
23 октября, сб
сб2300:00+17зюз23810 0.0 102075
03:00+17зюз46850 0.0 1020220
06:00+17юз34770 0.0 1020151
09:00+17зюз45765 0.0 1020262
12:00+17юз56756 0.0 1021372
15:00+18юз447549 0.0 1020222
18:00+18зюз2375100 0.0 102032
21:00+18ссв227590 0.0 102116
24 октября, вс
вс2400:00+17св447544 0.0 102280
03:00+16ссв457428 0.0 1021137
06:00+16ссв46775 0.0 1021212
09:00+15с10137819 0.0 1023483
12:00+15ссв111381100 0.0 1025727
15:00+14ссв81081100 0.2 1026809
18:00+14св111284100 0.4 10271045
21:00+14св101276100 0.9 10281029
25 октября, пн
пн2500:00+14св10116786 0.0 10301349
03:00+14св101257100 0.1 10291504
06:00+13св91158100 0.0 10291364
09:00+14всв11135792 0.0 10301637
12:00+14св12135480 0.0 10301534
15:00+14св12135779 0.0 10291364
18:00+13св111262100 0.0 10281232
21:00+13св11136348 0.0 10281080
26 октября, вт
вт2600:00+13всв10136544 0.0 10271017
03:00+13всв10136673 0.0 10261031
06:00+13всв111369100 0.0 10251122
09:00+13св11126524 0.0 10251173
12:00+15св111261100 0.0 10251276
15:00+15св111259100 0.0 10231294
18:00+14св11136499 0.0 10231163
21:00+14св10136694 0.0 1023963